(136108) Haumea
ephemeris date magn radius delta ra dec elong phase
Opposition22 Apr 202617.249.797 AU48.914 AU14h41m+14°36'151.2°0.6°
Today22 Jun 202617.249.781 AU49.305 AU14h38m+14°39'117.5°1.0°
(136108) Haumea - 2026-06-22
astro.vanbuitenen.nl


 
-1 year
-1 month
-1 day
Now
+1 day
+1 month
+1 year

The interactive orbit chart above shows the body's path through the solar system and its position at the given date. Green and blue lines are shown perpendicular to the ecliptic plane: Green if the path is above the ecliptic plane, blue if it is below. (Left-click and drag to rotate the view; Right-click and drag to move the view; Use scroll wheel to zoom in our out.)

The orbital elements of Haumea are:

            e (Eccentricity)                : 0.1944363
            a (Semimajor axis)              : 43.0605403
            i (Inclination)                 : 28.20849
            Ω (Longitude of ascending node) : 121.78629
            ω (Argument of perihelion)      : 240.69066
            M (Mean anomaly)                : 223.20949
            Epoch                           : 2026 Jun 09

            L (Longitude of perihelion)     : 179.28719
            B (Latitude of perihelion)      : -24.34142
            P (Orbital period in years)     : 282.57            
        

The light curve chart below shows the estimated development of the minor planet's magnitude.


The all-sky chart below shows the path of the minor planet over the same period as the light curve. The current position is marked yellow.





The following chart shows the path of the minor planet in the next few days. The field of view is optimized for (~10x50) binoculars and finderscopes.




Ephemerides:
Date       Time       RA (2000)    DEC (2000)    delta   radius  elong  phase   PA    magn
2026-06-22 00:00 UT   14 38 07.7   +14 39 41    49.305   49.781  117.5    1.0   127   17.2 
2026-06-22 02:49 UT   14 38 07.4   +14 39 39    49.306   49.781  117.4    1.0   127   17.2 
2026-06-23 00:00 UT   14 38 05.2   +14 39 23    49.317   49.781  116.6    1.0   126   17.2 
2026-06-24 00:00 UT   14 38 02.8   +14 39 05    49.330   49.781  115.8    1.1   126   17.2 
2026-06-25 00:00 UT   14 38 00.5   +14 38 46    49.342   49.780  115.0    1.1   125   17.3 
2026-06-26 00:00 UT   14 37 58.2   +14 38 27    49.355   49.780  114.2    1.1   125   17.3 
2026-06-27 00:00 UT   14 37 56.0   +14 38 07    49.368   49.780  113.4    1.1   124   17.3 
2026-06-28 00:00 UT   14 37 53.8   +14 37 47    49.381   49.780  112.6    1.1   123   17.3 
2026-06-29 00:00 UT   14 37 51.7   +14 37 26    49.394   49.779  111.7    1.1   123   17.3 
2026-06-30 00:00 UT   14 37 49.7   +14 37 04    49.407   49.779  110.9    1.1   122   17.3 
2026-07-01 00:00 UT   14 37 47.7   +14 36 42    49.421   49.779  110.1    1.1   122   17.3 
2026-07-02 00:00 UT   14 37 45.8   +14 36 19    49.434   49.779  109.3    1.1   121   17.3 
2026-07-03 00:00 UT   14 37 44.0   +14 35 56    49.448   49.778  108.4    1.1   121   17.3 
2026-07-04 00:00 UT   14 37 42.2   +14 35 32    49.461   49.778  107.6    1.1   120   17.3 
2026-07-05 00:00 UT   14 37 40.5   +14 35 07    49.475   49.778  106.8    1.1   120   17.3 
2026-07-06 00:00 UT   14 37 38.9   +14 34 42    49.489   49.778  106.0    1.1   119   17.3 
2026-07-07 00:00 UT   14 37 37.4   +14 34 16    49.502   49.777  105.1    1.1   119   17.3 
2026-07-08 00:00 UT   14 37 35.9   +14 33 50    49.516   49.777  104.3    1.1   118   17.3 
2026-07-09 00:00 UT   14 37 34.5   +14 33 23    49.530   49.777  103.5    1.1   118   17.3 
2026-07-10 00:00 UT   14 37 33.1   +14 32 56    49.545   49.776  102.6    1.1   117   17.3 
2026-07-11 00:00 UT   14 37 31.8   +14 32 28    49.559   49.776  101.8    1.1   117   17.3 
2026-07-12 00:00 UT   14 37 30.6   +14 32 00    49.573   49.776  100.9    1.1   116   17.3 
2026-07-13 00:00 UT   14 37 29.5   +14 31 31    49.587   49.776  100.1    1.2   116   17.3 
2026-07-14 00:00 UT   14 37 28.5   +14 31 02    49.602   49.775   99.3    1.2   115   17.3 
2026-07-15 00:00 UT   14 37 27.5   +14 30 32    49.616   49.775   98.4    1.2   115   17.3 
2026-07-16 00:00 UT   14 37 26.6   +14 30 02    49.630   49.775   97.6    1.2   115   17.3 
2026-07-17 00:00 UT   14 37 25.8   +14 29 31    49.645   49.775   96.8    1.2   114   17.3 
2026-07-18 00:00 UT   14 37 25.0   +14 29 00    49.659   49.774   95.9    1.2   114   17.3 
2026-07-19 00:00 UT   14 37 24.3   +14 28 28    49.674   49.774   95.1    1.2   113   17.3 
2026-07-20 00:00 UT   14 37 23.7   +14 27 56    49.688   49.774   94.2    1.2   113   17.3 
2026-07-21 00:00 UT   14 37 23.2   +14 27 24    49.703   49.774   93.4    1.2   112   17.3 
2026-07-22 00:00 UT   14 37 22.7   +14 26 51    49.717   49.773   92.6    1.2   112   17.3 


    Terminology:
            
    delta:  distance between minor planet and earth in AU
    radius: distance between minor planet and sun in AU
    magn:   magnitude (brightness) estimate    
    ra:     right ascension in hours (24h = 360deg)
    dec:    declination in degrees
    elong:  elongation in degrees (angle sun-earth-minor planet)    
    phase:  phase angle in degrees (angle sun-minor planet-earth)        
    AU:     Astronomical Unit (mean distance between earth and sun: 149597870.7 km
    

Orbital elements provided by the MPC (Minor Planet Center).
Calculations by a modified version of AAPlus, a C# implementation of the AA+ project by PJ Naughter from the algorithms presented in the book "Astronomical Algorithms" by Jean Meeus.
NGC2000 dso catalog and star labels from VizieR as provided by the Strasbourg astronomical Data Center.
Tycho2 catalog from the ESO archive.